sat.trackr.live / text

‹ back to catalog

GLOBAL-33

NORAD 66554 · 2025-267A

PAYLOAD ACTIVE UNKNOWN

§ Identity

Operator
Country
US
Launch date
2025-11-20
Launch site
RLLB
Launch vehicle
Mass (kg)
RCS (m²)

External: N2YO · Heavens-Above · Gunter

§ Orbital elements

Epoch: 2026-09-20T21:54:44.199648Z

Period
93.59 min
Inclination
42.0182°
Eccentricity
0.0010986
Mean motion
15.38576261 rev/d
Perigee alt
442.8 km
Apogee alt
457.8 km
Semi-major
6,828.5 km
B*
2.3035e-4
RAAN
218.5710°
Arg perigee
202.6572°
Mean anomaly
157.3784°
Rev number
4,678

§ Raw data

GLOBAL-331 66554U 25267A   26263.91301157  .00008729  00000+0  23035-3 0  99952 66554  42.0182 218.5710 0010986 202.6572 157.3784 15.38576261 46781

JSON: /api/v1/satellites/66554 · /tle

For live sub-satellite position, see the globe view (requires WebGL).

§ Visibility from observer

Set your observer location to see the next 7 days of passes ≥ 10°. The values pass through the URL so the page stays shareable.

No JS? Fill the form by hand. The geolocation button needs JavaScript.

§ Radio — SatNOGS DB

ModeDescriptionDownlinkUplink
FM Mode U - Transmitter 401.015 MHz

1 transmitter · refreshed weekly from db.satnogs.org